Flag for U.S.A. Weather past 2 weeks in Scottsdale, Arizona, U.S.A.

65 °F

Light rain. Mostly cloudy.

Feels Like: 65 °F
Forecast: 61 / 78 °F
Wind: 6 mph from East

Location: Scottsdale Airport

Current Time: Oct 6, 2015 at 9:17:25 PM

Latest Report: Oct 6, 2015 at 7:53 PM

Visibility: 10 mi

Pressure: 29.96 "Hg

Humidity: 87%

Dew point: 61 °F

Location of ScottsdaleLocation

Historic Weather in Scottsdale — Graph


Scottsdale temperature yesterday

Maximum temperature yesterday: 83 °F (at 12:53 PM)
Minimum temperature yesterday: 71 °F (at 7:53 AM)
Average temperature yesterday: 77 °F

Past Weeks' High & Low Weather Summary

High102 °F (Sep 30, 2:53 PM)87% (Oct 6, 6:53 AM)30.01 "Hg (Oct 6, 6:53 AM)
Low64 °F (Oct 6, 2:53 PM)10% (Oct 1, 2:53 PM)29.48 "Hg (Oct 3, 5:53 PM)
Average84 °F36%29.78 "Hg
* Reported Sep 21 7:53 PM — Oct 6 7:53 PM, Scottsdale, Weather by CustomWeather, © 2015

Note: Actual official high and low records may vary slightly from our data, if they occured in-between our weather recording intervals... More about our weather records


Scottsdale weather history for previous 24 hours

Time TempWeatherWind HumidityBarometerVisibility
7:53 PM
Tue, Oct 6
65 °FLight rain. Mostly cloudy.6 mph87%29.96 "Hg10 mi
6:53 PM66 °FLight rain. Overcast.6 mph75%29.97 "Hg10 mi
5:53 PM67 °FLight rain. Overcast.3 mph73%29.94 "Hg10 mi
4:53 PM67 °FPartly sunny.5 mph66%29.96 "Hg10 mi
3:53 PM66 °FPassing clouds.9 mph68%29.97 "Hg10 mi
2:53 PM64 °FPassing clouds.9 mph78%29.99 "Hg10 mi
1:53 PM67 °FThundershowers. Mostly cloudy.10 mph81%29.98 "Hg10 mi
12:53 PM73 °FThunderstorms. Overcast.12 mph66%29.98 "Hg7 mi
11:53 AM78 °FPassing clouds.6 mph40%29.97 "Hg10 mi
10:53 AM77 °FScattered clouds.3 mph44%29.99 "Hg10 mi
9:53 AM74 °FScattered clouds.6 mph53%30.01 "Hg10 mi
8:53 AM71 °FPassing clouds.No wind68%30.01 "Hg10 mi
7:53 AM69 °FOvercast.No wind73%30.01 "Hg10 mi
6:53 AM66 °FOvercast.No wind87%29.99 "Hg10 mi
5:53 AM66 °FPassing clouds.No wind84%29.98 "Hg10 mi
4:53 AM68 °FPartly cloudy.No wind76%29.96 "Hg10 mi
3:53 AM68 °FLight rain. Partly cloudy.6 mph70%29.95 "Hg8 mi
2:53 AM67 °FMostly cloudy.6 mph79%29.95 "Hg10 mi
1:53 AM66 °FMostly cloudy.3 mph81%29.96 "Hg10 mi
12:53 AM67 °FLight rain. Overcast.6 mph76%29.96 "Hg9 mi
11:53 PM
Mon, Oct 5
73 °FMostly cloudy.No wind51%29.94 "Hg10 mi
10:53 PM75 °FOvercast.5 mph43%29.94 "Hg10 mi
9:53 PM75 °FPassing clouds.No wind43%29.93 "Hg10 mi
Weather by CustomWeather, © 2015

See weather overviewHow to use our weather pages